Stations météo

réclame
Mon MeteoGroup
Landsort, Suède (2567): Température de l'air & dewpoint: 18.04.2018 10:00:00 - 24.04.2018 10:00:00 (CEST)Landsort, Suède (2567): Vitesse du vent & gusts: 18.04.2018 10:00:00 - 24.04.2018 10:00:00 (CEST)Landsort, Suède (2567): Direction du vent: 18.04.2018 10:00:00 - 24.04.2018 10:00:00 (CEST)Landsort, Suède (2567): reduced air pressure: 18.04.2018 10:00:00 - 24.04.2018 10:00:00 (CEST)Landsort, Suède (2567): visibility: 18.04.2018 10:00:00 - 24.04.2018 10:00:00 (CEST)Landsort, Suède (2567): Quantités de précipitations: 18.04.2018 10:00:00 - 24.04.2018 10:00:00 (CEST)
Date & Time tt [°C] td [°C] ff [km/h] ff [knt] fx [km/h] fx [knt] dd ppp [hPa] vv [km] rr [mm]
24.04.2018 10:00:00 - - - - - - - - - -
24.04.2018 09:00:00 5,8 3,7 26 14 35 19 WSW 1001,9 42 0,0
24.04.2018 08:00:00 6,0 3,9 28 15 34 19 WSW 1001,9 40 0,0
24.04.2018 07:00:00 4,8 4,7 23 12 28 15 SW 1001,9 34 0,0
24.04.2018 06:00:00 5,3 5,0 21 11 33 18 WSW 1001,7 38 0,0
24.04.2018 05:00:00 5,0 4,8 20 11 37 20 WSW 1001,8 23 0,0
24.04.2018 04:00:00 5,2 4,9 29 16 38 20 WSW 1001,9 47 0,0
24.04.2018 03:00:00 5,6 4,6 29 16 40 22 SW 1002,0 50 0,0
24.04.2018 02:00:00 5,0 4,9 24 13 40 22 SW 1002,3 22 0,0
24.04.2018 01:00:00 5,5 5,1 26 14 42 23 WSW 1002,7 18 0,0
24.04.2018 00:00:00 5,5 5,3 23 13 42 23 SW 1002,8 8 0,6
23.04.2018 23:00:00 5,2 5,1 25 13 36 19 SSW 1002,8 2,8 0,0
23.04.2018 22:00:00 4,8 4,7 22 12 33 18 SW 1003,1 1,7 0,0
23.04.2018 21:00:00 3,6 3,5 14 7 26 14 W 1003,7 0,3 0,0
23.04.2018 20:00:00 4,2 4,0 16 9 37 20 WSW 1003,4 8 0,0
23.04.2018 19:00:00 4,7 4,4 21 11 39 21 SSW 1003,4 14 0,0
23.04.2018 18:00:00 5,1 4,5 28 15 44 24 S 1003,7 21 0,0
23.04.2018 17:00:00 4,7 4,3 33 18 47 26 SSE 1004,2 9 0,5
23.04.2018 16:00:00 4,7 4,2 35 19 47 26 SE 1005,0 6 1,2
23.04.2018 15:00:00 4,4 4,1 30 16 41 22 SE 1006,8 6 0,7
23.04.2018 14:00:00 5,0 3,3 34 18 41 22 SE 1007,3 50 0,0
23.04.2018 13:00:00 5,0 3,3 34 18 40 21 SE 1008,6 50 0,0
23.04.2018 12:00:00 5,5 3,2 29 16 34 19 SE 1010,0 50 0,0
23.04.2018 11:00:00 5,9 3,6 24 13 30 16 SE 1010,9 50 0,0
23.04.2018 10:00:00 5,8 3,6 25 14 29 16 SE 1011,0 35 0,0
23.04.2018 09:00:00 5,1 3,2 23 12 27 15 SSE 1012,4 48 0,0
23.04.2018 08:00:00 - - - - - - - - - -
23.04.2018 07:00:00 - - - - - - - - - -
23.04.2018 06:00:00 - - - - - - - - - -
23.04.2018 05:00:00 - - - - - - - - - -
23.04.2018 04:00:00 - - - - - - - - - -
23.04.2018 03:00:00 - - - - - - - - - -
23.04.2018 02:00:00 - - - - - - - - - -
23.04.2018 01:00:00 - - - - - - - - - -
23.04.2018 00:00:00 - - - - - - - - - -
22.04.2018 23:00:00 - - - - - - - - - -
22.04.2018 22:00:00 - - - - - - - - - -
22.04.2018 21:00:00 - - - - - - - - - -
22.04.2018 20:00:00 - - - - - - - - - -
22.04.2018 19:00:00 - - - - - - - - - -
22.04.2018 18:00:00 - - - - - - - - - -
22.04.2018 17:00:00 - - - - - - - - - -
22.04.2018 16:00:00 - - - - - - - - - -
22.04.2018 15:00:00 - - - - - - - - - -
22.04.2018 14:00:00 - - - - - - - - - -
22.04.2018 13:00:00 8,2 1,1 19 10 25 14 SW 1016,2 45 0,0
22.04.2018 12:00:00 10,2 0,0 9 5 23 13 WSW 1016,0 45 0,0
22.04.2018 11:00:00 - - - - - - - - - -
22.04.2018 10:00:00 - - - - - - - - - -
22.04.2018 09:00:00 - - - - - - - - - -
22.04.2018 08:00:00 - - - - - - - - - -
22.04.2018 07:00:00 - - - - - - - - - -
22.04.2018 06:00:00 - - - - - - - - - -
22.04.2018 05:00:00 - - - - - - - - - -
22.04.2018 04:00:00 - - - - - - - - - -
22.04.2018 03:00:00 - - - - - - - - - -
22.04.2018 02:00:00 - - - - - - - - - -
22.04.2018 01:00:00 - - - - - - - - - -
22.04.2018 00:00:00 - - - - - - - - - -
21.04.2018 23:00:00 - - - - - - - - - -
21.04.2018 22:00:00 11,2 1,6 11 6 17 9 WNW 1011,6 34 0,0
21.04.2018 21:00:00 - - - - - - - - - -
21.04.2018 20:00:00 - - - - - - - - - -
21.04.2018 19:00:00 - - - - - - - - - -
21.04.2018 18:00:00 - - - - - - - - - -
21.04.2018 17:00:00 - - - - - - - - - -
21.04.2018 16:00:00 - - - - - - - - - -
21.04.2018 15:00:00 - - - - - - - - - -
21.04.2018 14:00:00 - - - - - - - - - -
21.04.2018 13:00:00 - - - - - - - - - -
21.04.2018 12:00:00 - - - - - - - - - -
21.04.2018 11:00:00 - - - - - - - - - -
21.04.2018 10:00:00 - - - - - - - - - -
21.04.2018 09:00:00 - - - - - - - - - -
21.04.2018 08:00:00 - - - - - - - - - -
21.04.2018 07:00:00 - - - - - - - - - -
21.04.2018 06:00:00 - - - - - - - - - -
21.04.2018 05:00:00 - - - - - - - - - -
21.04.2018 04:00:00 9,5 6,3 29 16 42 23 WNW 1005,5 27 0,0
21.04.2018 03:00:00 8,3 6,3 27 14 41 22 WNW 1005,2 10 0,0
21.04.2018 02:00:00 - - - - - - - - - -
21.04.2018 01:00:00 - - - - - - - - - -
21.04.2018 00:00:00 - - - - - - - - - -
20.04.2018 23:00:00 - - - - - - - - - -
20.04.2018 22:00:00 6,5 3,9 22 12 39 21 WSW 1007,0 38 0,0
20.04.2018 21:00:00 - - - - - - - - - -
20.04.2018 20:00:00 - - - - - - - - - -
20.04.2018 19:00:00 - - - - - - - - - -
20.04.2018 18:00:00 - - - - - - - - - -
20.04.2018 17:00:00 - - - - - - - - - -
20.04.2018 16:00:00 - - - - - - - - - -
20.04.2018 15:00:00 - - - - - - - - - -
20.04.2018 14:00:00 - - - - - - - - - -
20.04.2018 13:00:00 - - - - - - - - - -
20.04.2018 12:00:00 - - - - - - - - - -
20.04.2018 11:00:00 - - - - - - - - - -
20.04.2018 10:00:00 - - - - - - - - - -
20.04.2018 09:00:00 - - - - - - - - - -
20.04.2018 08:00:00 6,6 6,2 31 17 36 20 W 1021,3 17 0,0
20.04.2018 07:00:00 5,6 5,4 25 13 31 17 W 1021,8 15 0,0
20.04.2018 06:00:00 5,8 5,1 27 15 31 17 W 1022,2 23 0,0
20.04.2018 05:00:00 5,2 4,3 16 9 27 15 WSW 1022,9 26 0,0
20.04.2018 04:00:00 5,6 4,5 19 10 27 15 WSW 1023,5 28 0,0
20.04.2018 03:00:00 4,8 4,0 19 10 26 14 WSW 1024,0 16 0,0
20.04.2018 02:00:00 4,9 4,1 14 8 26 14 WSW 1024,7 16 0,0
20.04.2018 01:00:00 4,8 3,9 14 8 35 19 WSW 1025,3 18 0,0
20.04.2018 00:00:00 5,5 4,3 19 10 35 19 SW 1025,8 24 0,0
19.04.2018 23:00:00 6,2 4,7 22 12 33 18 SW 1026,2 28 0,0
19.04.2018 22:00:00 6,5 4,4 22 12 28 15 SW 1026,8 42 0,0
19.04.2018 21:00:00 5,6 3,9 16 9 24 13 WSW 1027,3 39 0,0
19.04.2018 20:00:00 5,9 3,9 16 8 31 17 WSW 1027,4 50 0,0
19.04.2018 19:00:00 6,6 3,9 17 9 31 17 WSW 1027,8 43 0,0
19.04.2018 18:00:00 8,1 4,4 21 11 29 16 SW 1028,1 37 0,0
19.04.2018 17:00:00 11,7 3,7 22 12 29 15 SW 1028,4 50 0,0
19.04.2018 16:00:00 10,3 5,7 17 9 28 15 WSW 1028,8 41 0,0
19.04.2018 15:00:00 8,2 5,1 18 10 28 15 WSW 1029,0 36 0,0
19.04.2018 14:00:00 8,9 5,5 23 12 29 15 WSW 1029,3 30 0,0
19.04.2018 13:00:00 8,5 5,0 16 9 29 15 WSW 1029,7 32 0,0
19.04.2018 12:00:00 8,2 4,9 16 9 24 13 WSW 1029,6 29 0,0
19.04.2018 11:00:00 7,0 4,5 18 10 22 12 W 1029,2 34 0,0
19.04.2018 10:00:00 8,6 5,2 16 9 20 11 WNW 1029,0 35 0,0
19.04.2018 09:00:00 6,9 4,7 14 8 27 14 WNW 1028,8 32 0,0
19.04.2018 08:00:00 6,2 4,6 14 7 27 14 WNW 1028,6 33 0,0
19.04.2018 07:00:00 6,2 4,7 16 9 25 13 NW 1028,1 38 0,0
19.04.2018 06:00:00 6,5 4,9 20 11 25 13 NW 1027,3 45 0,0
19.04.2018 05:00:00 6,8 5,0 17 9 28 15 NW 1027,0 43 0,0
19.04.2018 04:00:00 6,8 4,9 17 9 28 15 NW 1027,1 49 0,0
19.04.2018 03:00:00 7,7 5,0 22 12 27 15 NW 1026,7 49 0,0
19.04.2018 02:00:00 8,0 5,2 18 10 29 16 WNW 1026,8 46 0,0
19.04.2018 01:00:00 7,0 4,8 20 11 33 18 WNW 1026,2 42 0,0
19.04.2018 00:00:00 6,3 4,2 25 14 33 18 W 1026,0 43 0,0
18.04.2018 23:00:00 6,8 4,4 22 12 27 14 W 1025,5 50 0,0
18.04.2018 22:00:00 6,6 4,1 16 9 32 17 W 1025,2 50 0,0
18.04.2018 21:00:00 8,2 4,9 17 9 34 18 WNW 1024,7 50 0,0
18.04.2018 20:00:00 9,8 5,5 27 14 35 19 WNW 1024,1 50 0,0
18.04.2018 19:00:00 10,2 5,5 24 13 36 19 NW 1023,7 50 0,0
18.04.2018 18:00:00 12,1 5,8 26 14 36 19 NW 1023,3 50 0,0
18.04.2018 17:00:00 9,7 5,0 18 10 26 14 W 1022,6 38 0,0
18.04.2018 16:00:00 10,3 5,5 15 8 29 15 WSW 1022,6 30 0,0
18.04.2018 15:00:00 8,5 5,2 15 8 35 19 W 1023,2 28 0,0
18.04.2018 14:00:00 6,0 4,2 21 12 35 19 WSW 1023,3 16 0,0
18.04.2018 13:00:00 6,6 4,5 18 10 31 17 SW 1023,0 19 0,0
18.04.2018 12:00:00 5,5 4,3 21 11 34 18 SW 1023,4 16 0,0
18.04.2018 11:00:00 4,8 4,1 13 7 34 18 WSW 1023,9 13 0,0
18.04.2018 10:00:00 5,1 4,7 22 12 29 16 SW 1023,8 10 0,0

tt = Température de l'air
td = dewpoint
ff = Vitesse du vent
fx = gusts
dd = Direction du vent
ppp = reduced air pressure
vv = visibility
rr = Quantités de précipitations

stations d'obs. à proximité